Fallon NAS, NV

12:06 PM PDT on June 23, 2017 (GMT -0700)
Fallon Naval Air Station

Weather History for KNFL - September, 2013

Change the Weather History Date:

Friday, September 27, 2013

  Actual Average Record
Temperature  
Mean Temperature 46 °F -  
Max Temperature 63 °F 76 °F 93 °F (1963)
Min Temperature 30 °F 40 °F 24 °F (1934)
Degree Days  
Heating Degree Days 19    
Moisture  
Dew Point 26 °F    
Average Humidity 50    
Maximum Humidity 80    
Minimum Humidity 23    
Precipitation  
Precipitation 0.00 in - - ()
Sea Level Pressure  
Sea Level Pressure 30.05 in    
Wind  
Wind Speed 4 mph (SSW)    
Max Wind Speed 7 mph    
Max Gust Speed -    
Visibility 10 miles    
Events      
Averages and records for this station are not official NWS values.
T = Trace of Precipitation, MM = Missing Value Source: NWS Daily Summary

Daily Weather History Graph

Daily Weather History Graph

Search for Another Location

Airport or City:

Trip Planner

Search our weather history database for the weather conditions in past years. The results will help you decide how hot, cold, wet, or windy it might be!

Date:

Astronomy

Sep. 27, 2013 Rise Set
Actual Time 6:47 AM PDT 6:43 PM PDT
Civil Twilight 6:20 AM PDT 7:09 PM PDT
Nautical Twilight 5:49 AM PDT 7:41 PM PDT
Astronomical Twilight 5:17 AM PDT 8:12 PM PDT
Moon No Moon Rise 2:23 PM PDT (9/27)
Length of Visible Light 12h 49m
Length of Day
11h 55m
Last Quarter, 44% of the Moon is Illuminated
Sep 27
Last Quarter
Oct 4
New
Oct 11
First Quarter
Oct 18
Full
Oct 26
Last Quarter

Hourly Weather History & Observations

Time (PDT) Temp. Windchill Dew Point Humidity Pressure Visibility Wind Dir Wind Speed Gust Speed Precip Events Conditions
12:56 AM 37.9 °F 34.4 °F 28.0 °F 68% 29.99 in 10.0 mi NW 4.6 mph - N/A   Clear
1:56 AM 37.9 °F 33.5 °F 28.0 °F 68% 30.00 in 10.0 mi West 5.8 mph - N/A   Clear
2:56 AM 35.1 °F 30.1 °F 27.0 °F 72% 30.01 in 10.0 mi West 5.8 mph - N/A   Clear
3:56 AM 34.0 °F - 26.1 °F 73% 30.02 in 10.0 mi Calm Calm - N/A   Clear
4:56 AM 30.9 °F 25.2 °F 24.1 °F 76% 30.03 in 10.0 mi SSW 5.8 mph - N/A   Clear
5:56 AM 30.0 °F 25.2 °F 24.1 °F 79% 30.04 in 10.0 mi SSE 4.6 mph - N/A   Clear
6:19 AM 30.2 °F 25.4 °F 24.8 °F 80% 30.15 in 10.0 mi South 4.6 mph - N/A   Partly Cloudy
6:56 AM 30.9 °F 26.2 °F 24.1 °F 76% 30.06 in 10.0 mi South 4.6 mph - N/A   Partly Cloudy
7:56 AM 36.0 °F 31.1 °F 27.0 °F 70% 30.07 in 10.0 mi South 5.8 mph - N/A   Partly Cloudy
8:56 AM 44.1 °F - 28.9 °F 55% 30.09 in 10.0 mi Calm Calm - N/A   Partly Cloudy
9:56 AM 48.0 °F - 30.0 °F 50% 30.09 in 10.0 mi Variable 3.5 mph - N/A   Partly Cloudy
10:56 AM 53.1 °F - 30.9 °F 43% 30.10 in 10.0 mi Calm Calm - N/A   Partly Cloudy
11:56 AM 55.9 °F - 30.0 °F 37% 30.10 in 10.0 mi North 6.9 mph - N/A   Partly Cloudy
12:56 PM 55.9 °F - 28.0 °F 34% 30.08 in 10.0 mi Calm Calm - N/A   Scattered Clouds
1:56 PM 60.1 °F - 27.0 °F 28% 30.06 in 10.0 mi Variable 5.8 mph - N/A   Scattered Clouds
2:56 PM 61.0 °F - 26.1 °F 26% 30.05 in 10.0 mi Calm Calm - N/A   Scattered Clouds
3:56 PM 61.0 °F - 26.1 °F 26% 30.04 in 10.0 mi Calm Calm - N/A   Scattered Clouds
4:56 PM 62.1 °F - 24.1 °F 23% 30.04 in 10.0 mi NNW 4.6 mph - N/A   Scattered Clouds
5:56 PM 60.1 °F - 23.0 °F 24% 30.04 in 10.0 mi Calm Calm - N/A   Scattered Clouds
6:56 PM 57.0 °F - 23.0 °F 27% 30.04 in 10.0 mi Calm Calm - N/A   Scattered Clouds
7:56 PM 53.1 °F - 24.1 °F 32% 30.04 in 10.0 mi ENE 6.9 mph - N/A   Partly Cloudy
8:56 PM 50.0 °F - 21.9 °F 33% 30.06 in 10.0 mi East 4.6 mph - N/A   Partly Cloudy
9:56 PM 45.0 °F 42.6 °F 24.1 °F 44% 30.06 in 10.0 mi SW 4.6 mph - N/A   Partly Cloudy
10:56 PM 42.1 °F - 24.1 °F 49% 30.06 in 10.0 mi Calm Calm - N/A   Clear
11:56 PM 42.1 °F 38.4 °F 21.9 °F 45% 30.05 in 10.0 mi South 5.8 mph - N/A   Clear